"Pseudo-MPEC" for P20JGDh

Created 2018 Oct 12 21:18:17 UT using Find_Orb

Click here for an explanation of pseudo-MPECs

 
 Astrometry: 
     P20JGDh  C2018 10 09(]AstrometrykN[/rYyCdAsv%sf21m0\L$NkYfCHaL,STgbaId]vK88
     P20JGDh  C2018 10 09:p([MlyKFD*fBSNn_[w\Z8+xu\8kRN3l@+Ek,DPrf)4B[6HXr(qWK88
     P20JGDh  C2018 10 09ZF9rlE6@3\:\,$\Ql?Qa3pcEBEy%=mw/8gOKJCD,)f?SX^+8Er..K88
     P20JGDh  C2018 10 10=PSZ)2Qv/`iwi:!28a;M[n+tSCsK+(i[5#dHT;1n*.]xcI7J?,w!F52
     P20JGDh  C2018 10 10\O.YHYd*y@YB3Y-[=p;YB,^a85mrk!+:4JD7#pA:^TH?q8gwZs5AF52
     P20JGDh  C2018 10 10fK^YwOZ\in,h_0,V+redacted;Gn`o31gKx+LT'8%eqn+^8SE9/fF52
     P20JGDh  C2018 10 10I:3=\PfIVdh;6vB(!ayW0^oH8n(Q#nT\qrr!^v1IM9:oB;1uLAZuF52
     P20JGDh IC2018 10 11irjK#msW1/(*(]h$okvB_6k'+VWw6R@.Bkej?v!N$_Vb(41M0S2xL01
     P20JGDh KC2018 10 11m+UJR`osIk45]1k2iPB+21`uIrvHf[#6x/PG\yl!h(8Ss$B#GN62L01
     P20JGDh KC2018 10 11DP-n]ph?MX=\c?b0tP8f)ekCl.Y$RceeseeIp.hC@_Z)#Slg'vZmK88
     P20JGDh KC2018 10 11ZE8`h*H!bd(!*QK8sI22)i\bV=^60r\I2$-ZZJ[DR6(];tVd-BGIK88
     P20JGDh KC2018 10 111]1gI$1v:4.ruiRyJQQ:YhUTDta@AdQ%O?YRwjN7X]/.L-Pm_DL'K88
     P20JGDh KC2018 10 12SZLMuFI_x(h=aA:,I+,nL20Z#s`*:dA`MjyKrhB4c6@2u^si1+TEH21
     P20JGDh KC2018 10 12H1b;ryD@hsQ;aMO$cIk^-d'rI[=Km54bbjBa4bAW\Lrwy!VJGW1[H21
     P20JGDh KC2018 10 12*Zq!`ktSdInSe50!a\y:]UV-V0gkH!JaZo[;HdpS)+=+Fy^NEOCPH21

Station data:
(F52) Pan-STARRS 2, Haleakala  (N20.707384 W156.255910)  US/Hawaii.
(H21) Astronomical Research Observatory, Westfield  (N39.483057 W87.968270)
   US/Illinois. 0.76-m f/3.0 astrograph + CCD.
(K88) GINOP-KHK, Piszkéstető  (N47.917622 E19.893600)  Hungary.  Observer K.
   Sárneczky. 0.60-m Schmidt + CCD.
(L01) Višnjan Observatory, Tičan  (N45.290900 E13.749300)  Croatia.  Observer
   K. Korlević. 1.0-m f/2.9 reflector + CCD.

Orbital elements:  P20JGDh
   Perihelion 2018 Jul 16.134997 +/- 1.06 TT =  3:14:23 (JD 2458315.634997)
Epoch 2018 Oct 12.0 TT = JDT 2458403.5   Earth MOID: 0.1252   Ma: 0.0052
M  28.48594 +/- 0.34                (J2000 ecliptic)          AutoNEOCP
n   0.32420129 +/- 0.00356          Peri.  266.76595 +/- 0.29
a   2.09858334 +/- 0.0154           Node    47.04951 +/- 0.13
e   0.4769058 +/- 0.00365           Incl.    5.09143 +/- 0.12
P   3.04                   H 20.3   G  0.15   U  9.0  
q 1.09775656 +/- 0.00132    Q 3.09941011 +/- 0.0302
From 15 observations 2018 Oct. 9-12; mean residual 0".15
Residuals in arcseconds: 
181009 K88  .07+  .16-    181010 F52  .17+  .00     181011 K88  .10-  .27+    
181009 K88  .05-  .07+    181010 F52  .28+  .06-    181011 K88  .19-  .35+    
181009 K88  .11-  .00     181011 L01  .15-  .19-    181012 H21  .20+  .13-    
181010 F52  .08+  .06-    181011 L01  .01-  .15-    181012 H21  .03+  .00     
181010 F52  .05+  .03-    181011 K88  .03-  .29+    181012 H21  .16-  .11-    

Ephemerides (geocentric):
Date (UTC) HH   RA              Dec         delta   r     elong  mag " sig PA
---- -- -- --  -------------   -----------  ------ ------ -----  --- ---- ---
2018 10 12 21  03 16 27.670   +13 32 04.74  .50123 1.4495 148.6 20.7  .14  53
2018 10 12 22  03 16 23.780   +13 32 12.60  .50134 1.4498 148.7 20.7  .16  52
2018 10 12 23  03 16 19.886   +13 32 20.44  .50144 1.4500 148.7 20.7  .17  50
2018 10 13 00  03 16 15.989   +13 32 28.26  .50154 1.4503 148.8 20.7  .18  49
2018 10 13 01  03 16 12.089   +13 32 36.06  .50165 1.4505 148.8 20.7  .19  48
2018 10 13 02  03 16 08.185   +13 32 43.85  .50175 1.4508 148.9 20.7  .21  47
2018 10 13 03  03 16 04.278   +13 32 51.62  .50185 1.4511 148.9 20.7  .22  47
2018 10 13 04  03 16 00.367   +13 32 59.37  .50196 1.4513 149.0 20.7  .23  46
2018 10 13 05  03 15 56.453   +13 33 07.11  .50206 1.4516 149.1 20.7  .25  45
2018 10 13 06  03 15 52.535   +13 33 14.82  .50217 1.4518 149.1 20.7  .26  45
2018 10 13 07  03 15 48.614   +13 33 22.53  .50227 1.4521 149.2 20.7  .28  44
2018 10 13 08  03 15 44.690   +13 33 30.21  .50238 1.4524 149.2 20.7  .29  43
2018 10 13 09  03 15 40.762   +13 33 37.88  .50248 1.4526 149.3 20.7  .31  43
2018 10 13 10  03 15 36.831   +13 33 45.53  .50259 1.4529 149.3 20.7  .32  42
2018 10 13 11  03 15 32.896   +13 33 53.17  .50270 1.4531 149.4 20.6  .34  42
2018 10 13 12  03 15 28.959   +13 34 00.78  .50280 1.4534 149.5 20.6  .35  42
2018 10 13 13  03 15 25.018   +13 34 08.39  .50291 1.4537 149.5 20.6  .37  41
2018 10 13 14  03 15 21.073   +13 34 15.97  .50302 1.4539 149.6 20.6  .38  41
2018 10 13 15  03 15 17.125   +13 34 23.54  .50312 1.4542 149.6 20.6  .40  41
2018 10 13 16  03 15 13.174   +13 34 31.09  .50323 1.4544 149.7 20.6  .41  40
2018 10 13 17  03 15 09.220   +13 34 38.62  .50334 1.4547 149.7 20.6  .43  40
2018 10 13 18  03 15 05.263   +13 34 46.14  .50345 1.4550 149.8 20.6  .44  40
2018 10 13 19  03 15 01.302   +13 34 53.64  .50356 1.4552 149.8 20.6  .46  39
2018 10 13 20  03 14 57.338   +13 35 01.12  .50366 1.4555 149.9 20.6  .48  39
2018 10 13 21  03 14 53.371   +13 35 08.59  .50377 1.4557 150.0 20.6  .49  39
2018 10 13 22  03 14 49.401   +13 35 16.04  .50388 1.4560 150.0 20.6  .51  38
2018 10 13 23  03 14 45.427   +13 35 23.47  .50399 1.4563 150.1 20.6  .53  38
2018 10 14 00  03 14 41.450   +13 35 30.89  .50410 1.4565 150.1 20.6  .54  38
2018 10 14 01  03 14 37.471   +13 35 38.29  .50421 1.4568 150.2 20.6  .56  38
2018 10 14 02  03 14 33.488   +13 35 45.67  .50432 1.4571 150.2 20.6  .58  37
2018 10 14 03  03 14 29.501   +13 35 53.04  .50443 1.4573 150.3 20.6  .60  37
2018 10 14 04  03 14 25.512   +13 36 00.39  .50454 1.4576 150.4 20.6  .61  37
2018 10 14 05  03 14 21.520   +13 36 07.72  .50465 1.4578 150.4 20.6  .63  37
2018 10 14 06  03 14 17.525   +13 36 15.04  .50477 1.4581 150.5 20.6  .65  37
2018 10 14 07  03 14 13.526   +13 36 22.34  .50488 1.4584 150.5 20.6  .67  36
2018 10 14 08  03 14 09.525   +13 36 29.62  .50499 1.4586 150.6 20.6  .69  36
2018 10 14 09  03 14 05.520   +13 36 36.89  .50510 1.4589 150.6 20.6  .70  36
2018 10 14 10  03 14 01.512   +13 36 44.14  .50521 1.4591 150.7 20.6  .72  36
2018 10 14 11  03 13 57.502   +13 36 51.37  .50533 1.4594 150.7 20.6  .74  36
2018 10 14 12  03 13 53.488   +13 36 58.59  .50544 1.4597 150.8 20.6  .76  35
2018 10 14 13  03 13 49.472   +13 37 05.79  .50555 1.4599 150.9 20.6  .78  35
2018 10 14 14  03 13 45.452   +13 37 12.97  .50566 1.4602 150.9 20.6  .80  35
2018 10 14 15  03 13 41.429   +13 37 20.14  .50578 1.4604 151.0 20.6  .82  35
2018 10 14 16  03 13 37.404   +13 37 27.29  .50589 1.4607 151.0 20.6  .84  35
2018 10 14 17  03 13 33.375   +13 37 34.43  .50601 1.4610 151.1 20.6  .86  34
2018 10 14 18  03 13 29.344   +13 37 41.54  .50612 1.4612 151.1 20.6  .88  34
2018 10 14 19  03 13 25.310   +13 37 48.65  .50624 1.4615 151.2 20.6  .90  34
2018 10 14 20  03 13 21.273   +13 37 55.73  .50635 1.4618 151.3 20.6  .92  34